Regional Weather Roundup
Issued by NWS Upton, NY

Current Version | Previous Version | Graphics & Text | Print | Product List | Glossary Off
Versions: 1 2 3 4 5 6 7 8 9 10 11 12 13 14 15 16 17 18 19 20 21 22 23 24 25 26 27 28 29 30 31 32 33 34 35 36 37 38 39 40 41 42 43 44 45 46 47 48 49 50

000
ASUS41 KOKX 201805
RWROKX

REGIONAL WEATHER ROUNDUP
NATIONAL WEATHER SERVICE NEW YORK NY
200 PM EDT WED AUG 20 2014

NOTE: "FAIR" INDICATES FEW OR NO CLOUDS BELOW 12,000 FEET WITH NO
SIGNIFICANT WEATHER AND/OR OBSTRUCTIONS TO VISIBILITY.

NYZ071-072-176-178-NJZ106-104-201900-
NEW YORK CITY METRO AREA


CITY           SKY/WX    TMP DP  RH WIND       PRES   REMARKS
CENTRAL PARK   MOSUNNY   82  58  43 VRB6      30.01F
LAGUARDIA APRT MOSUNNY   81  58  45 S14       29.98F
KENNEDY INTL   MOSUNNY   79  58  48 S9        30.00F
NEWARK/LIBERTY MOSUNNY   82  60  47 S8        29.98F
BRNX BOT. GARD   N/A     81  59  47 SE12      29.98F
TETERBORO      MOSUNNY   84  59  42 SE9       29.97F
$$

NYZ177-179-078>081-201900-
LONG ISLAND NEW YORK

CITY           SKY/WX    TMP DP  RH WIND       PRES   REMARKS
FARMINGDALE    SUNNY     78  58  49 S12       30.00F
ISLIP          MOSUNNY   79  57  46 S12       29.99S
SHIRLEY        MOSUNNY   79  57  46 S9        30.01S
WESTHAMPTON    SUNNY     79  56  45 SE8       30.02S
MONTAUK POINT    N/A     77  62  59 VRB3      30.02F
$$

NYZ052-065-067-201900-
HUDSON VALLEY

CITY           SKY/WX    TMP DP  RH WIND       PRES   REMARKS
WHITE PLAINS   MOSUNNY   81  63  54 SE9       29.99F
NEWBURGH       MOSUNNY   81  66  61 VRB6      29.99F
MONTGOMERY     PTSUNNY   82  65  56 SW8       29.97F
POUGHKEEPSIE   MOSUNNY   83  65  54 CALM      29.96F
ALBANY         MOSUNNY   81  65  58 SE7       29.97F
$$

NJZ001-105-106-008-010-013-015-019>022-104-201900-
NEW JERSEY

CITY           SKY/WX    TMP DP  RH WIND       PRES   REMARKS
NEWARK/LIBERTY MOSUNNY   82  60  47 S8        29.98F
TETERBORO      MOSUNNY   84  59  42 SE9       29.97F
CALDWELL       MOSUNNY   82  61  48 CALM      29.98F
MORRISTOWN     PTSUNNY   84  63  48 NW5       29.98F
SOMERVILLE     PTSUNNY   83  62  49 S5        29.96F
LINDEN         FAIR      86  63  45 S9        30.00S
SUSSEX         MOSUNNY   84  64  50 S6        29.98F
ANDOVER          N/A     82  62  50 MISG      29.99F
TRENTON        PTSUNNY   82  61  48 S8        29.97F
MILLVILLE      MOSUNNY   81  63  54 VRB5      29.98F
ATLANTIC CITY  SUNNY     80  62  54 E8        29.99F
WRIGHTSTOWN    PTSUNNY   83  64  52 S5        29.95F
TOMS RIVER     SUNNY     81  57  44 E8        30.00S
BELMAR         SUNNY     79  57  47 E9        30.00S
$$

PAZ047>061-062-071-201900-
EASTERN PENNSYLVANIA

CITY           SKY/WX    TMP DP  RH WIND       PRES   REMARKS
PHILADELPHIA   MOSUNNY   83  61  47 SW8       29.97F
ALLENTOWN      CLOUDY    82  62  50 S6        29.97F
SCRANTON       MOSUNNY   82  64  54 SW12      29.97F
$$

CTZ002-004>006-009-010-012-RIZ004-006-007-MAZ004-011-015-201900-
SOUTHERN NEW ENGLAND
 IN CT

CITY           SKY/WX    TMP DP  RH WIND       PRES   REMARKS
BRADLEY INTL   MOSUNNY   82  60  47 VRB5      29.98F
HARTFORD       SUNNY     80  59  48 VRB3      29.98F
DANBURY        PTSUNNY   78  64  61 S6        30.00F
WTRBRY/OXFORD  MOSUNNY   79  64  61 S6        30.03F
BRIDGEPORT     SUNNY     78  64  61 E6        30.00F
MERIDEN        SUNNY     81  58  45 VRB3      29.99F
NEW HAVEN      MOSUNNY   79  59  50 SE6       30.00F
CHESTER        FAIR      79  63  57 S6        30.01F
GROTON         SUNNY     73  64  73 S10       30.00S
WILLIMANTIC    SUNNY     82  58  43 NE6       30.00F

 IN RI

CITY           SKY/WX    TMP DP  RH WIND       PRES   REMARKS
PROVIDENCE     MOSUNNY   80  58  46 S7        30.00F
BLOCK ISLAND   SUNNY     73  59  60 SE8       30.02F
WESTERLY       MOSUNNY   75  58  55 SE12      30.01F

 IN MA

CITY           SKY/WX    TMP DP  RH WIND       PRES   REMARKS
BOSTON         MOSUNNY   74  58  57 E12       30.03S
WORCESTER      MOSUNNY   77  56  48 E6        30.04S
WESTFIELD      SUNNY     81  61  50 VRB3      29.99F
PROVINCETOWN   SUNNY     73  61  64 MISG      30.04R
NANTUCKET      SUNNY     72  58  61 NE9       30.02F
$$

ANZ330-335-338-340-345-350-353-355-201900-
COASTAL MARINE OBSERVATIONS


STATION/POSITION TIME  SKY/WX   TEMP    WIND        PRES    VSBY  WAVE
                                AIR SEA DIR/SP/G                  HT/PER
                 (UTC)          (F)     (DEG/KT/KT) (MB)    (MI)  (FT/S)
NY HARB ENTRANCE NOT AVBL
4S FIRE IS       NOT AVBL
23SW MTP         1800            70 71              1015.9          1/ 8
HUDSON CANYON    1800            72 73   30/ 10/ 12 1015.6          3/ 6
EXECUTION ROCKS  1800            75 75   90/  8/ 10   N/A
WESTERN LI SOUND 1800            73      80/  8/ 10   N/A           0
CENTRAL LI SOUND 1700            70 74   50/  4/  4   N/A           0
EASTERN LI SOUND 1700            70 70  190/  8/  8   N/A
ROBBINS REEF     1800            74     180/ 13/ 14   N/A
$$


>>>>>>>>>>>>>>>>>>>>>>>>>>>> KEY <<<<<<<<<<<<<<<<<<<<<<<<<<<
>                                                          <
>     SKY/WX - SKY CONDITION/PRESENT WEATHER               <
>     TMP    - TEMPERATURE IN FAHRENHEIT                   <
>     DP     - DEWPOINT IN FAHRENHEIT                      <
>     RH     - RELATIVE HUMIDITY IN PERCENT                <
>     WIND   - DIRECTION AND SPEED IN MPH                  <
>     PRES   - MEAN SEA LEVEL PRESSURE IN INCHES OF HG     <
>     WCI    - WIND CHILL INDEX                            <
>     VSB    - VISIBILITY IN MILES                         <
>     HX     - HEAT INDEX                                  <
>     TC     - TEMPERATURE IN CELSIUS                      <
>     VRB    - VARIABLE WIND DIRECTION                     <
>                                                          <
>>>>>>>>>>>>>>>>>>>>>>>>>>>> KEY <<<<<<<<<<<<<<<<<<<<<<<<<<<




USA.gov is the U.S. government's official web portal to all federal, state and local government web resources and services.